sat.trackr.live / text

‹ back to catalog

BEIDOU-2 G8 (C01)

NORAD 44231 · 2019-027A

PAYLOAD ACTIVE UNKNOWN

§ Identity

Operator
Country
PRC
Launch date
2019-05-17
Launch site
XICLF
Launch vehicle
Mass (kg)
RCS (m²)

Purposes: comms, nav

External: N2YO · Heavens-Above · Gunter

§ Orbital elements

Epoch: 2026-09-04T04:43:30.241056Z

Period
1,436.06 min
Inclination
1.8510°
Eccentricity
0.0008978
Mean motion
1.00274489 rev/d
Perigee alt
35,748.0 km
Apogee alt
35,823.7 km
Semi-major
42,164.0 km
B*
0.0000e+0
RAAN
74.3386°
Arg perigee
279.6787°
Mean anomaly
204.6938°
Rev number
2,687

§ Raw data

BEIDOU-2 G8 (C01)1 44231U 19027A   26247.19687779 -.00000252  00000+0  00000+0 0  99962 44231   1.8510  74.3386 0008978 279.6787 204.6938  1.00274489 26870

JSON: /api/v1/satellites/44231 · /tle

For live sub-satellite position, see the globe view (requires WebGL).

§ Visibility from observer

Set your observer location to see the next 7 days of passes ≥ 10°. The values pass through the URL so the page stays shareable.

No JS? Fill the form by hand. The geolocation button needs JavaScript.